Regional Weather Roundup
Issued by NWS

Home | Current Version | Previous Version | Text Only | Print | Product List | Glossary Off
Versions: 1 2 3 4 5 6 7 8 9 10 11 12 13 14 15 16 17 18 19 20 21 22 23 24 25 26 27 28 29 30 31 32 33 34 35 36 37 38 39 40 41 42 43 44 45 46 47 48 49 50

000
ASUS43 KDMX 221807
RWRIA

WEATHER ROUNDUP FOR IOWA
NATIONAL WEATHER SERVICE DES MOINES IA
100 PM CDT MON SEP 22 2014

NOTE: "FAIR" INDICATES FEW OR NO CLOUDS BELOW 12,000 FEET WITH NO
SIGNIFICANT WEATHER AND/OR OBSTRUCTIONS TO VISIBILITY.

* - THESE STATIONS ARE NOT NWS STATIONS...THUS NOT UNDER NWS
QUALITY CONTROL.  THEY ALSO DO NOT REPORT WEATHER SUCH
AS PRECIPITATION OR FOG.

IAZ001>003-012>014-020>022-031>034-043>046-221900-
   NORTHWEST IOWA

CITY           SKY/WX    TMP DP  RH WIND       PRES   REMARKS
CARROLL *      SUNNY     70  48  46 VRB6      30.28F
CHEROKEE *     SUNNY     69  48  48 SW7       30.28S
DENISON *      SUNNY     68  48  49 SW8       30.27F
LE MARS *      SUNNY     70  48  46 SW9G15    30.26F
ORANGE CITY *  SUNNY     70  45  40 SW10      30.26F
SHELDON *      SUNNY     68  48  49 SW8       30.25F
SIOUX CITY     SUNNY     71  49  45 S8        30.27F
6HR MIN TEMP:  44; 6HR MAX TEMP:  71;

SPENCER        SUNNY     68  47  46 SW5       30.27F
6HR MIN TEMP:  38; 6HR MAX TEMP:  69;

STORM LAKE *   SUNNY     68  52  56 S8        30.29S
$$

IAZ055>058-069>071-079>083-090>094-221900-
   SOUTHWEST IOWA

CITY           SKY/WX    TMP DP  RH WIND       PRES   REMARKS
ATLANTIC *     SUNNY     68  48  49 CALM      30.29F
AUDUBON *      SUNNY     70  48  46 SE5       30.30F
CLARINDA *     SUNNY     70  50  49 CALM      30.31F
COUNCIL BLFS * SUNNY     68  52  56 S7        30.28F
CRESTON *      SUNNY     66  50  55 S5        30.30F
HARLAN  *      SUNNY     68  48  49 VRB7      30.32F
LAMONI         SUNNY     66  52  60 CALM      30.31F
6HR MIN TEMP:  47; 6HR MAX TEMP:  68;

RED OAK *      SUNNY     70  50  49 VRB3      30.30F
SHENANDOAH *   SUNNY     70  48  46 SW6       30.31S
$$

IAZ047>049-059>061-072>074-084-221900-
   CENTRAL IOWA

CITY           SKY/WX    TMP DP  RH WIND       PRES   REMARKS
AMES           SUNNY     68  51  54 SW7       30.29F
6HR MIN TEMP:  43; 6HR MAX TEMP:  68;

ANKENY *       SUNNY     68  52  56 SW7       30.30F
CHARITON *     SUNNY     66  50  55 CALM      30.31F
DES MOINES     MOSUNNY   69  50  50 VRB5      30.29F
6HR MIN TEMP:  49; 6HR MAX TEMP:  70;

GRINNELL*      SUNNY     66  46  48 CALM      30.31F
KNOXVILLE *      N/A     66  48  52 CALM      30.29F
MARSHALLTOWN   SUNNY     68  50  52 W6        30.29F
6HR MIN TEMP:  39; 6HR MAX TEMP:  68;

PELLA *        SUNNY     68  49  51 CALM      30.31F
PERRY *          N/A     69  48  47 W3        30.29F
$$

IAZ004>006-015-016-023>025-035-036-221900-
   NORTH CENTRAL IOWA

CITY           SKY/WX    TMP DP  RH WIND       PRES   REMARKS
ALGONA *       SUNNY     68  48  49 CALM      30.28F
CLARION *        N/A     68  48  49 NW7       30.29S
ESTHERVILLE    SUNNY     67  47  48 MISG      30.27F
6HR MIN TEMP:  40; 6HR MAX TEMP:  67;

FORT DODGE *   SUNNY     68  50  52 W7        30.30F
MASON CITY     SUNNY     67  51  56 SW9       30.29F
6HR MIN TEMP:  41; 6HR MAX TEMP:  67;

FOREST CITY *    N/A     66  50  55 MISG        N/A
IOWA FALLS *     N/A     68  48  49 W5        30.30F
$$

IAZ007>011-017>019-026>030-037>042-050>054-066-221900-
   NORTHEAST IOWA

CITY           SKY/WX    TMP DP  RH WIND       PRES   REMARKS
CEDAR RAPIDS   SUNNY     66  47  50 VRB5      30.30F
6HR MIN TEMP:  42; 6HR MAX TEMP:  66;

CHARLES CITY * MOSUNNY   68  50  52 SW10      30.29F
CLINTON *      SUNNY     64  43  45 NW3       30.33F
DECORAH *      SUNNY     66  48  52 W8G15     30.27F
DUBUQUE        SUNNY     64  44  48 SW8       30.30F
6HR MIN TEMP:  38; 6HR MAX TEMP:  65;

MONTICELLO *   SUNNY     66  45  45 SW6       30.29F
OELWEIN *      SUNNY     68  48  49 SW8G15    30.30F
WATERLOO       SUNNY     68  47  46 W7        30.28F
6HR MIN TEMP:  38; 6HR MAX TEMP:  69;

$$

IAZ064-065-067-068-078-221900-
   EAST CENTRAL IOWA

CITY           SKY/WX    TMP DP  RH WIND       PRES   REMARKS
DAVENPORT      SUNNY     65  40  39 SE3       30.30F
6HR MIN TEMP:  38; 6HR MAX TEMP:  65;

IOWA CITY      SUNNY     66  48  52 W6        30.31F
6HR MIN TEMP:  42; 6HR MAX TEMP:  67;

MT. PLEASANT * SUNNY     68  40  34 CALM      30.31F
MUSCATINE *    SUNNY     66  43  42 CALM      30.31F
QUAD CITIES    SUNNY     65  43  44 CALM      30.30F
6HR MIN TEMP:  42; 6HR MAX TEMP:  66;

$$

IAZ062-063-075>077-085>089-095>099-221900-
   SOUTHEAST IOWA

CITY           SKY/WX    TMP DP  RH WIND       PRES   REMARKS
BURLINGTON     SUNNY     68  46  45 NE8       30.30F
6HR MIN TEMP:  44; 6HR MAX TEMP:  68; 6HR PCP: TRACE;

FAIRFIELD *    SUNNY     66  45  45 CALM      30.31F
FORT MADISON * SUNNY     70  43  37 CALM      30.31F
KEOKUK *       SUNNY     66  45  45 E7        30.30F
OSKALOOSA *      N/A     67  46  47 CALM      30.30F
CENTERVILLE *  SUNNY     66  48  52 NW3       30.32F
OTTUMWA        SUNNY     67  49  52 VRB5      30.30F
6HR MIN TEMP:  43; 6HR MAX TEMP:  67;

WASHINGTON *   SUNNY     68  39  34 VRB5      30.31S
$$

ABBREVIATIONS USED IN REMARKS
   TC - TEMPERATURES IN CELSIUS
  WCI - WIND CHILL INDEX
   HX - HEAT INDEX
  VSB - VISIBILITY
$$



USA.gov is the U.S. government's official web portal to all federal, state and local government web resources and services.